Regional Weather Roundup
Issued by NWS

Home | Current Version | Previous Version | Graphics & Text | Print | Product List | Glossary On
Versions: 1 2 3 4 5 6 7 8 9 10 11 12 13 14 15 16 17 18 19 20 21 22 23 24 25 26 27 28 29 30 31 32 33 34 35 36 37 38 39 40 41 42 43 44 45 46 47 48 49 50
000
ASUS43 KFSD 051110
RWRSD

WEATHER ROUNDUP FOR SOUTH DAKOTA
NATIONAL WEATHER SERVICE SIOUX FALLS SD
600 AM CDT SAT SEP 05 2015

NOTE: "FAIR" INDICATES FEW OR NO CLOUDS BELOW 12,000 FEET WITH NO
SIGNIFICANT WEATHER AND/OR OBSTRUCTIONS TO VISIBILITY.


SDZ001>005-009-010-012>017-051200-
NORTHWEST AND NORTH CENTRAL SOUTH DAKOTA

CITY           SKY/WX    TMP DP  RH WIND       PRES   REMARKS
BUFFALO          N/A     64  61  90 E15       29.77R
FAITH            N/A     70  65  84 NE9       29.80S
MOBRIDGE       FOG       71  71 100 VRB3      29.76S VSB 3/4
$$

SDZ012>016-024>037-041>051-057-063-072>074-051200-
SOUTHWEST AND SOUTH CENTRAL SOUTH DAKOTA

CITY           SKY/WX    TMP DP  RH WIND       PRES   REMARKS
RAPID CTY ARPT CLOUDY    67  59  75 NE8       29.83R
PIERRE         MOCLDY    68  66  93 SE7       29.75R
CUSTER         CLOUDY    59  53  80 CALM      29.97F
PHILIP         CLOUDY    68  64  87 NE5       29.76R
PINE RIDGE     HVY RAIN  68  58  70 W13       29.86R
WINNER         FAIR      73  61  65 S7        29.77F
$$

SDZ004>011-016>023-039-040-051200-
NORTHEAST SOUTH DAKOTA

CITY           SKY/WX    TMP DP  RH WIND       PRES   REMARKS
ABERDEEN       CLEAR     68  66  93 NE8       29.81R FOG
WATERTOWN      CLEAR     70  67  90 S9        29.84S
BROOKINGS      CLEAR     70  64  83 SE10      29.87S
SISSETON         N/A     67  67 100 NW5       29.83S
$$

SDZ017-020-022-023-036>040-048>070-051200-
SOUTHEAST SOUTH DAKOTA

CITY           SKY/WX    TMP DP  RH WIND       PRES   REMARKS
SIOUX FALLS    PTCLDY    71  67  87 S8        29.86R
HURON          CLEAR     70  68  93 SE9       29.78F
CHAMBERLAIN    CLOUDY    67  67  99 E5        29.77S
MITCHELL       PTCLDY    70  68  93 SE8       29.80S
YANKTON        MOCLDY    75  66  73 S13       29.81S
$$

ABBREVIATIONS USED IN REMARKS
   TC - TEMPERATURE IN CELSIUS
  WCI - WIND CHILL INDEX
   HX - HEAT INDEX
  VSB - VISIBILITY




USA.gov is the U.S. government's official web portal to all federal, state and local government web resources and services.